Flag for Norway Weather past 2 weeks in Finse, Norway

Now
39 °F

Chilly.


Feels Like: 36 °F
Forecast: 31 / 36 °F
Wind: 5 mph from Northwest

Location: Finsevatn

Current Time: Oct 20, 2014 at 6:55:24 AM

Latest Report: Oct 20, 2014 at 4:00 AM


Visibility: N/A

Pressure: 29.26 "Hg

Humidity: 88%

Dew point: 36 °F

Location of FinseLocation

Historic Weather in Finse — Graph

°F

Finse temperature yesterday

Maximum temperature yesterday: 46 °F (at 3:00 PM)
Minimum temperature yesterday: 39 °F (at 7:00 PM)
Average temperature yesterday: 43 °F

Past Weeks' High & Low Weather Summary

 TemperatureHumidityPressure
High46 °F (Oct 19, 3:00 PM)96% (Oct 6, 6:00 PM)30.27 "Hg (Oct 6, 6:00 PM)
Low26 °F (Oct 14, 8:00 AM)66% (Oct 14, 1:00 PM)29.26 "Hg (Oct 19, 9:00 PM)
Average35 °F88%29.82 "Hg
* Reported Oct 5 4:00 AM — Oct 20 4:00 AM, Finse, Weather by CustomWeather, © 2014

Note: Actual official high and low records may vary slightly from our data, if they occured in-between our weather recording intervals... More about our weather records

Advertising

Finse weather history for previous 24 hours

 ConditionsComfort  
Time TempWeatherWind HumidityBarometerVisibility
4:00 AM
Oct 20
39 °FChilly.5 mph88%29.26 "HgN/A
3:00 AM40 °FChilly.1 mph91%29.26 "HgN/A
2:00 AM41 °FQuite cool.2 mph87%29.26 "HgN/A
1:00 AM41 °FQuite cool.5 mph85%29.26 "HgN/A
12:00 AM42 °FQuite cool.7 mph80%29.26 "HgN/A
11:00 PM
Oct 19
42 °FQuite cool.6 mph83%29.26 "HgN/A
10:00 PM39 °FChilly.2 mph87%29.29 "HgN/A
9:00 PM40 °FChilly.6 mph90%29.26 "HgN/A
8:00 PM40 °FChilly.7 mph90%29.29 "HgN/A
7:00 PM39 °FChilly.6 mph89%29.32 "HgN/A
6:00 PM42 °FQuite cool.6 mph88%29.29 "HgN/A
5:00 PM42 °FQuite cool.5 mph86%29.35 "HgN/A
4:00 PM42 °FQuite cool.3 mph86%29.38 "HgN/A
3:00 PM46 °FCool.6 mph76%29.35 "HgN/A
2:00 PM45 °FCool.7 mph75%29.41 "HgN/A
1:00 PM45 °FCool.6 mph75%29.44 "HgN/A
12:00 PM46 °FCool.7 mph75%29.44 "HgN/A
11:00 AM45 °FCool.8 mph73%29.47 "HgN/A
10:00 AM44 °FQuite cool.8 mph77%29.47 "HgN/A
9:00 AM44 °FQuite cool.9 mph78%29.50 "HgN/A
8:00 AM44 °FQuite cool.9 mph78%29.50 "HgN/A
7:00 AM44 °FQuite cool.5 mph81%29.50 "HgN/A
6:00 AM44 °FQuite cool.5 mph83%29.54 "HgN/A
Weather by CustomWeather, © 2014

See weather overviewHow to use our weather pages